This demonstration page uses our WeatherBlox Daily Observations layout. Learn more.

40.92945, -100.16068

Hourly Observations for March 22, 2018

Temp ( °F °C ) Dew Point ( °F °C ) Humidity (%) Winds ( mph kmh ) Pressure ( in mb ) Visibility ( mi km ) Precip ( " mm )
12:15 am 00:15 Mostly Cloudy 47 8.4 33 0.5 58 58 SSW 16 26 30.06 1018 10 16.0934 0 0
12:35 am 00:35 Partly Cloudy 46 7.7 33 0.6 61 61 SSW 13 20 30.06 1018 10 16.0934 0 0
12:55 am 00:55 Clear 45 7.4 33 0.7 63 63 SSW 12 19 30.06 1018 10 16.0934 0 0
1:15 am 01:15 Clear 45 7.4 34 0.9 64 64 SSW 10 17 30.06 1018 10 16.0934 0 0
1:35 am 01:35 Clear 44 6.8 33 0.7 65 65 NE 6 9 30.09 1019 10 16.0934 0 0
1:55 am 01:55 Clear 44 6.6 34 0.9 67 67 Calm 30.12 1020 10 16.0934 0 0
2:15 am 02:15 Clear 44 6.6 33 0.8 67 67 SSW 10 17 30.12 1020 10 16.0934 0 0
2:35 am 02:35 Clear 45 7.1 34 1.1 66 66 SSW 7 11 30.06 1018 10 16.0934 0 0
2:55 am 02:55 Mostly Cloudy 45 7.2 34 1 65 65 Calm 30.12 1020 10 16.0934 0 0
3:15 am 03:15 Cloudy 46 7.5 34 1 64 64 Calm 30.09 1019 10 16.0934 0 0
3:35 am 03:35 Cloudy 45 7 34 1 66 66 SW 3 6 30.12 1020 10 16.0934 0 0
3:55 am 03:55 Partly Cloudy 43 6 33 0.5 68 68 SSW 7 11 30.12 1020 10 16.0934 0 0
4:15 am 04:15 Clear 42 5.6 33 0.5 70 70 SSW 5 7 30.09 1019 10 16.0934 0 0
4:35 am 04:35 Clear 42 5.3 32 0.1 69 69 SSW 5 7 30.09 1019 10 16.0934 0 0
4:55 am 04:55 Mostly Cloudy 42 5.5 33 0.3 69 69 SW 5 7 30.09 1019 10 16.0934 0 0
5:15 am 05:15 Mostly Cloudy 40 4.6 32 0 72 72 Calm 30.09 1019 10 16.0934 0 0
5:35 am 05:35 Cloudy 38 3.2 32 0.1 80 80 Calm 30.12 1020 10 16.0934 0 0
5:55 am 05:55 Mostly Cloudy 35 1.8 32 -0.2 87 87 Calm 30.12 1020 10 16.0934 0 0
6:15 am 06:15 Partly Cloudy 39 3.7 32 0 77 77 Calm 30.12 1020 10 16.0934 0 0
6:35 am 06:35 Clear 34 1.1 30 -1 86 86 E 3 6 30.18 1022 10 16.0934 0 0
6:55 am 06:55 Clear 36 2.2 31 -0.6 82 82 Calm 30.15 1021 10 16.0934 0 0
7:15 am 07:15 Clear 33 0.6 30 -1 89 89 SE 6 9 30.18 1022 10 16.0934 0 0
7:35 am 07:35 Clear 34 0.9 30 -1 87 87 SE 3 6 30.18 1022 10 16.0934 0 0
7:55 am 07:55 Sunny 35 1.5 31 -0.4 87 87 SE 6 9 30.15 1021 10 16.0934 0 0
8:15 am 08:15 Sunny 37 2.6 32 0.1 84 84 SSE 7 11 30.15 1021 10 16.0934 0 0
8:35 am 08:35 Sunny 38 3.6 33 0.6 81 81 SE 5 7 30.12 1020 10 16.0934 0 0
8:55 am 08:55 Sunny 40 4.7 33 0.7 76 76 SE 6 9 30.12 1020 10 16.0934 0 0
9:15 am 09:15 Sunny 41 5.1 34 1.1 76 76 SSE 7 11 30.09 1019 10 16.0934 0 0
9:35 am 09:35 Sunny 44 6.5 35 1.7 72 72 Calm 30.12 1020 10 16.0934 0 0
9:55 am 09:55 Sunny 46 7.7 36 2 68 68 Calm 30.09 1019 10 16.0934 0 0
10:15 am 10:15 Sunny 47 8.4 36 2.1 65 65 Calm 30.09 1019 10 16.0934 0 0
10:35 am 10:35 Sunny 49 9.5 37 2.5 62 62 Calm 30.09 1019 10 16.0934 0 0
10:55 am 10:55 Sunny 50 10.2 37 2.7 60 60 Calm 30.09 1019 10 16.0934 0 0
11:15 am 11:15 Sunny 53 11.6 37 2.9 55 55 Calm 30.06 1018 10 16.0934 0 0
11:35 am 11:35 Sunny 55 12.7 36 2.3 49 49 Calm 30.06 1018 10 16.0934 0 0
11:55 am 11:55 Sunny 57 13.8 37 2.5 47 47 SSW 5 7 30.03 1017 10 16.0934 0 0
12:15 pm 12:15 Sunny 57 13.8 36 2.2 46 46 Calm 30.03 1017 10 16.0934 0 0
12:35 pm 12:35 Sunny 58 14.3 35 1.9 43 43 Calm 30.03 1017 10 16.0934 0 0
12:55 pm 12:55 Sunny 59 15 35 1.6 41 41 E 3 6 30 1016 10 16.0934 0 0
1:15 pm 13:15 Sunny 61 15.9 38 3.3 43 43 Calm 30 1016 10 16.0934 0 0
1:35 pm 13:35 Sunny 61 15.9 37 3 42 42 Calm 30 1016 10 16.0934 0 0
1:55 pm 13:55 Sunny 62 16.6 37 2.9 40 40 Calm 30 1016 10 16.0934 0 0
2:15 pm 14:15 Sunny 63 17.3 37 2.9 38 38 Calm 29.97 1015 10 16.0934 0 0
2:35 pm 14:35 Sunny 64 17.5 37 2.6 37 37 E 3 6 29.97 1015 10 16.0934 0 0
2:55 pm 14:55 Sunny 65 18.1 36 2.4 35 35 SSE 5 7 29.97 1015 10 16.0934 0 0
3:15 pm 15:15 Sunny 65 18.4 37 2.8 36 36 Calm 29.97 1015 10 16.0934 0 0
3:35 pm 15:35 Sunny 66 18.7 38 3.3 36 36 SE 6 9 29.97 1015 10 16.0934 0 0
3:55 pm 15:55 Sunny 67 19.4 39 3.8 36 36 ESE 8 13 29.97 1015 10 16.0934 0 0
4:15 pm 16:15 Sunny 66 19.1 39 3.7 36 36 E 5 7 29.97 1015 10 16.0934 0 0
4:35 pm 16:35 Sunny 67 19.7 39 4.1 36 36 SE 3 6 29.97 1015 10 16.0934 0 0
4:55 pm 16:55 Sunny 67 19.5 38 3.2 34 34 ESE 3 6 29.97 1015 10 16.0934 0 0
5:15 pm 17:15 Sunny 67 19.7 37 3 33 33 ESE 6 9 29.97 1015 10 16.0934 0 0
5:35 pm 17:35 Sunny 68 19.8 36 2 31 31 Calm 29.97 1015 10 16.0934 0 0
5:55 pm 17:55 Sunny 68 20 37 2.6 32 32 SSE 3 6 29.97 1015 10 16.0934 0 0
6:15 pm 18:15 Sunny 66 19.1 37 2.5 33 33 SE 3 6 29.97 1015 10 16.0934 0 0
6:35 pm 18:35 Sunny 67 19.7 37 3 33 33 E 7 11 29.97 1015 10 16.0934 0 0
6:55 pm 18:55 Sunny 66 19 39 4 37 37 E 8 13 29.97 1015 10 16.0934 0 0
7:15 pm 19:15 Sunny 63 17.2 40 4.5 43 43 E 7 11 29.97 1015 10 16.0934 0 0
7:35 pm 19:35 Sunny 60 15.8 41 5.2 50 50 E 6 9 30 1016 10 16.0934 0 0
7:55 pm 19:55 Clear 58 14.5 43 6 57 57 E 8 13 30 1016 10 16.0934 0 0
8:15 pm 20:15 Clear 57 14 42 5.5 57 57 E 7 11 30 1016 10 16.0934 0 0
8:35 pm 20:35 Clear 57 13.7 42 5.5 58 58 E 9 15 30 1016 10 16.0934 0 0
8:55 pm 20:55 Clear 55 12.5 41 5.1 61 61 E 10 17 30.03 1017 10 16.0934 0 0
9:15 pm 21:15 Clear 56 13.6 41 5 56 56 E 10 17 30 1016 10 16.0934 0 0
9:35 pm 21:35 Clear 55 12.9 41 5 59 59 E 12 19 30.03 1017 10 16.0934 0 0
9:55 pm 21:55 Clear 56 13.1 40 4.6 57 57 E 15 24 30.03 1017 10 16.0934 0 0
10:15 pm 22:15 Partly Cloudy 55 13 40 4.5 57 57 E 15 24 30.03 1017 10 16.0934 0 0
10:35 pm 22:35 Partly Cloudy 55 12.8 40 4.6 58 58 E 15 24 30.03 1017 10 16.0934 0 0
10:55 pm 22:55 Clear 54 12.4 40 4.5 59 59 E 15 24 30.03 1017 10 16.0934 0 0
11:15 pm 23:15 Clear 54 12.1 40 4.6 60 60 E 12 19 30.03 1017 10 16.0934 0 0
11:35 pm 23:35 Clear 53 11.5 40 4.6 63 63 E 13 20 30 1016 10 16.0934 0 0
11:55 pm 23:55 Clear 53 11.5 40 4.6 63 63 E 15 24 30 1016 10 16.0934 0 0

Powered by AerisWeather